Location: Bukit Lungun
(2.6833°N, 113.9667°E)
Time: 13:13:17
(UTC+00:00)

NOSS 3-4 (C) - Pass Details

Date: 02 March 2021
Orbit: 873 x 1340 km, 63.4° (Epoch: 19 April)

Event Time Altitude Azimuth Distance (km) Brightness Sun altitude
Exits shadow 21:42:59 10° 238° (WSW) 2,543 5.2 -13.5°
Maximum altitude 21:47:44 27° 294° (WNW) 1,632 4.1 -12.3°
Drops below altitude 10° 21:52:30 10° 350° (N) 2,512 5.5 -11.1°
Sets 21:55:22 0° 2° (N) 3,464 6.4 -10.4°
